When you browse on this site, cookies collect data to enhance your experience and personalize the content and advertising you see.
Visit our Privacy Policy to learn more. By continuing to use the site, you agree to this use of cookies and data.
  • In Switzerland
  • List of Countries
  • For 7 days
  • Water Temperature
  • Satellite Maps
  • Weather Map
  • Weather Widgets
  • user-avatar
    Login

    Hourly Weather Seevetal

    Today, 22 July, Monday

    Time Temperature Precipitation Wind Pressure Humidity
    00:00 +14°C° 0 mm 1 mps 763 mmHg 94%
    01:00 +13°C° 0 mm 0 mps 763 mmHg 95%
    02:00 +13°C° 0 mm 0 mps 762 mmHg 94%
    03:00 +14°C° 0 mm 1 mps 762 mmHg 94%
    04:00 +14°C° 0 mm 1 mps 762 mmHg 93%
    05:00 +15°C° 0 mm 1 mps 762 mmHg 90%
    06:00 +16°C° 0 mm 2 mps 762 mmHg 86%
    07:00 +18°C° 0 mm 1 mps 762 mmHg 82%
    08:00 +19°C° 0 mm 1 mps 762 mmHg 77%
    09:00 +19°C° 0 mm 2 mps 762 mmHg 71%
    10:00 +20°C° 0 mm 2 mps 762 mmHg 66%
    11:00 +20°C° 0 mm 2 mps 762 mmHg 70%
    12:00 +19°C° 0 mm 2 mps 762 mmHg 74%
    13:00 +20°C° 0 mm 1 mps 762 mmHg 82%
    14:00 +20°C° 0 mm 2 mps 762 mmHg 80%
    15:00 +21°C° 0 mm 3 mps 762 mmHg 77%
    16:00 +22°C° 0 mm 4 mps 761 mmHg 74%
    17:00 +21°C° 0 mm 4 mps 761 mmHg 76%
    18:00 +21°C° 0 mm 3 mps 761 mmHg 78%
    19:00 +21°C° 0 mm 3 mps 761 mmHg 80%
    20:00 +20°C° 0 mm 3 mps 761 mmHg 84%
    21:00 +20°C° 0 mm 2 mps 762 mmHg 88%
    22:00 +19°C° 0 mm 2 mps 762 mmHg 92%
    23:00 +18°C° 0 mm 2 mps 762 mmHg 94%

    Tomorrow, 23 July, Tuesday

    Time Temperature Precipitation Wind Pressure Humidity
    00:00 +18°C° 0 mm 2 mps 762 mmHg 95%
    01:00 +18°C° 0 mm 1 mps 762 mmHg 97%
    02:00 +17°C° 0 mm 2 mps 762 mmHg 97%
    03:00 +17°C° 0 mm 2 mps 762 mmHg 97%
    04:00 +16°C° 0 mm 2 mps 762 mmHg 97%
    05:00 +17°C° 0 mm 2 mps 762 mmHg 95%
    06:00 +18°C° 0 mm 2 mps 761 mmHg 92%
    07:00 +19°C° 0 mm 2 mps 761 mmHg 89%
    08:00 +21°C° 0 mm 2 mps 762 mmHg 81%
    09:00 +24°C° 0 mm 2 mps 762 mmHg 74%
    10:00 +26°C° 0 mm 2 mps 762 mmHg 66%
    11:00 +27°C° 0 mm 2 mps 762 mmHg 62%
    12:00 +28°C° 0 mm 2 mps 762 mmHg 57%
    13:00 +29°C° 0 mm 2 mps 761 mmHg 53%
    14:00 +29°C° 0 mm 2 mps 761 mmHg 53%
    15:00 +29°C° 0 mm 2 mps 761 mmHg 53%
    16:00 +29°C° 0 mm 2 mps 761 mmHg 53%
    17:00 +28°C° 0 mm 2 mps 761 mmHg 60%
    18:00 +27°C° 0 mm 2 mps 760 mmHg 67%
    19:00 +26°C° 0 mm 2 mps 760 mmHg 74%
    20:00 +24°C° 0 mm 2 mps 760 mmHg 80%
    21:00 +23°C° 0 mm 1 mps 761 mmHg 86%
    22:00 +21°C° 0 mm 1 mps 761 mmHg 92%
    23:00 +21°C° 0 mm 1 mps 761 mmHg 93%

    Day after tomorrow, 24 July, Wednesday

    Time Temperature Precipitation Wind Pressure Humidity
    00:00 +20°C° 0 mm 1 mps 760 mmHg 94%
    01:00 +20°C° 0 mm 1 mps 760 mmHg 95%
    02:00 +20°C° 0 mm 1 mps 760 mmHg 95%
    03:00 +20°C° 0 mm 1 mps 760 mmHg 96%
    04:00 +18°C° 0 mm 2 mps 759 mmHg 96%
    05:00 +20°C° 0 mm 2 mps 759 mmHg 91%
    06:00 +21°C° 0 mm 2 mps 759 mmHg 87%
    07:00 +23°C° 0 mm 2 mps 759 mmHg 82%
    08:00 +25°C° 0 mm 2 mps 759 mmHg 73%
    09:00 +27°C° 0 mm 2 mps 759 mmHg 64%
    10:00 +29°C° 0 mm 2 mps 759 mmHg 55%
    11:00 +30°C° 0 mm 2 mps 759 mmHg 51%
    12:00 +31°C° 0 mm 2 mps 759 mmHg 46%
    13:00 +32°C° 0 mm 2 mps 758 mmHg 42%
    14:00 +34°C° 0 mm 2 mps 758 mmHg 41%
    15:00 +34°C° 0 mm 2 mps 758 mmHg 41%
    16:00 +34°C° 0 mm 2 mps 758 mmHg 40%
    17:00 +32°C° 0 mm 2 mps 758 mmHg 47%
    18:00 +31°C° 0 mm 2 mps 758 mmHg 55%
    19:00 +29°C° 0 mm 2 mps 758 mmHg 62%
    20:00 +28°C° 0 mm 2 mps 758 mmHg 66%
    21:00 +26°C° 0 mm 2 mps 758 mmHg 70%
    22:00 +24°C° 0 mm 2 mps 759 mmHg 74%
    23:00 +24°C° 0 mm 2 mps 758 mmHg 74%

    25 July, Thursday

    Time Temperature Precipitation Wind Pressure Humidity
    00:00 +23°C° 0 mm 2 mps 758 mmHg 74%
    01:00 +23°C° 0 mm 2 mps 758 mmHg 74%
    02:00 +21°C° 0 mm 2 mps 758 mmHg 74%
    03:00 +21°C° 0 mm 2 mps 758 mmHg 74%
    04:00 +20°C° 0 mm 2 mps 758 mmHg 74%
    05:00 +23°C° 0 mm 2 mps 759 mmHg 72%
    06:00 +24°C° 0 mm 2 mps 759 mmHg 69%
    07:00 +25°C° 0 mm 3 mps 759 mmHg 67%
    08:00 +27°C° 0 mm 3 mps 759 mmHg 61%
    09:00 +29°C° 0 mm 3 mps 759 mmHg 55%
    10:00 +31°C° 0 mm 3 mps 759 mmHg 50%
    11:00 +33°C° 0 mm 3 mps 759 mmHg 46%
    12:00 +34°C° 0 mm 3 mps 759 mmHg 43%
    13:00 +35°C° 0 mm 3 mps 759 mmHg 40%
    14:00 +35°C° 0 mm 3 mps 759 mmHg 40%
    15:00 +35°C° 0 mm 3 mps 759 mmHg 40%
    16:00 +35°C° 0 mm 3 mps 759 mmHg 40%
    17:00 +33°C° 0 mm 3 mps 759 mmHg 47%
    18:00 +31°C° 0 mm 3 mps 759 mmHg 54%
    19:00 +29°C° 0 mm 3 mps 759 mmHg 61%
    20:00 +28°C° 0 mm 3 mps 759 mmHg 63%
    21:00 +26°C° 0 mm 3 mps 759 mmHg 65%
    22:00 +25°C° 0 mm 3 mps 760 mmHg 68%
    23:00 +24°C° 0 mm 3 mps 760 mmHg 71%

    26 July, Friday

    Time Temperature Precipitation Wind Pressure Humidity
    00:00 +22°C° 0 mm 3 mps 760 mmHg 75%
    01:00 +21°C° 0 mm 3 mps 760 mmHg 78%
    02:00 +20°C° 0 mm 3 mps 760 mmHg 78%
    03:00 +19°C° 0 mm 3 mps 760 mmHg 78%
    04:00 +19°C° 0 mm 3 mps 760 mmHg 78%
    05:00 +19°C° 0 mm 3 mps 760 mmHg 74%
    06:00 +20°C° 0 mm 3 mps 760 mmHg 69%
    07:00 +20°C° 0 mm 3 mps 760 mmHg 65%
    08:00 +22°C° 0 mm 4 mps 760 mmHg 60%
    09:00 +25°C° 0 mm 4 mps 760 mmHg 56%
    10:00 +27°C° 0 mm 4 mps 760 mmHg 51%
    11:00 +28°C° 0 mm 5 mps 760 mmHg 49%
    12:00 +29°C° 0 mm 5 mps 760 mmHg 47%
    13:00 +30°C° 0 mm 5 mps 760 mmHg 45%
    14:00 +30°C° 0 mm 5 mps 759 mmHg 44%
    15:00 +30°C° 0 mm 5 mps 759 mmHg 44%
    16:00 +30°C° 0 mm 4 mps 759 mmHg 43%
    17:00 +29°C° 0 mm 5 mps 758 mmHg 49%
    18:00 +27°C° 0 mm 5 mps 758 mmHg 54%
    19:00 +25°C° 0 mm 5 mps 758 mmHg 60%
    20:00 +23°C° 0 mm 4 mps 758 mmHg 64%
    21:00 +21°C° 0 mm 4 mps 759 mmHg 69%
    22:00 +20°C° 0 mm 4 mps 759 mmHg 73%
    23:00 +19°C° 0 mm 3 mps 759 mmHg 77%

    27 July, Saturday

    Time Temperature Precipitation Wind Pressure Humidity
    00:00 +18°C° 0 mm 3 mps 758 mmHg 80%
    01:00 +18°C° 0 mm 3 mps 758 mmHg 84%
    02:00 +17°C° 0 mm 3 mps 758 mmHg 86%
    03:00 +17°C° 0 mm 3 mps 758 mmHg 88%
    04:00 +17°C° 0 mm 3 mps 758 mmHg 90%
    05:00 +18°C° 0 mm 3 mps 758 mmHg 87%
    06:00 +19°C° 0 mm 3 mps 758 mmHg 83%
    07:00 +20°C° 0 mm 3 mps 758 mmHg 80%
    08:00 +22°C° 0 mm 3 mps 758 mmHg 73%
    09:00 +25°C° 0 mm 3 mps 758 mmHg 65%
    10:00 +27°C° 0 mm 3 mps 758 mmHg 58%
    11:00 +28°C° 0 mm 4 mps 757 mmHg 54%
    12:00 +29°C° 0 mm 4 mps 757 mmHg 50%
    13:00 +30°C° 0 mm 4 mps 757 mmHg 46%
    14:00 +30°C° 0 mm 4 mps 757 mmHg 46%
    15:00 +32°C° 0 mm 4 mps 756 mmHg 46%
    16:00 +32°C° 0 mm 4 mps 756 mmHg 46%
    17:00 +30°C° 0 mm 4 mps 756 mmHg 51%
    18:00 +29°C° 0 mm 3 mps 756 mmHg 56%
    19:00 +28°C° 0 mm 3 mps 756 mmHg 61%
    20:00 +27°C° 0 mm 3 mps 756 mmHg 63%
    21:00 +25°C° 0 mm 3 mps 756 mmHg 66%
    22:00 +24°C° 0 mm 3 mps 756 mmHg 68%
    23:00 +24°C° 0 mm 3 mps 756 mmHg 70%
    Show more